This is the latest recevied weather packets stored in our database for station/object DL9NEE-10. If no packets are shown the sender has not sent any weather packets the latest 10 day(s).
| Time | Temp. | Humidity | Pressure | Rain* | Wind** | Luminosity | Snow |
|---|---|---|---|---|---|---|---|
| 1777455265 | 17.78° C | 32% | 1024.3 hPa | - | - | - | - |
| 1777454365 | 17.22° C | 33% | 1024.2 hPa | - | - | - | - |
| 1777453465 | 17.22° C | 34% | 1024.3 hPa | - | - | - | - |
| 1777452565 | 16.67° C | 34% | 1024.2 hPa | - | - | - | - |
| 1777451664 | 16.11° C | 34% | 1024.2 hPa | - | - | - | - |
| 1777450764 | 15.56° C | 35% | 1024.2 hPa | - | - | - | - |
| 1777449864 | 15° C | 36% | 1024 hPa | - | - | - | - |
| 1777448964 | 14.44° C | 36% | 1023.9 hPa | - | - | - | - |
| 1777448064 | 13.89° C | 37% | 1023.9 hPa | - | - | - | - |
| 1777447164 | 13.33° C | 37% | 1023.8 hPa | - | - | - | - |
| 1777446264 | 13.33° C | 38% | 1023.9 hPa | - | - | - | - |
| 1777445363 | 12.78° C | 39% | 1023.9 hPa | - | - | - | - |
| 1777444463 | 12.22° C | 40% | 1023.8 hPa | - | - | - | - |
| 1777443563 | 11.67° C | 40% | 1023.6 hPa | - | - | - | - |
| 1777442663 | 11.67° C | 40% | 1023.4 hPa | - | - | - | - |
| 1777441763 | 11.11° C | 39% | 1023.3 hPa | - | - | - | - |
| 1777440863 | 11.11° C | 39% | 1023.3 hPa | - | - | - | - |
| 1777439963 | 11.11° C | 39% | 1023.3 hPa | - | - | - | - |
| 1777439063 | 11.11° C | 40% | 1023.3 hPa | - | - | - | - |
| 1777438162 | 10.56° C | 40% | 1023 hPa | - | - | - | - |
| 1777437262 | 10.56° C | 40% | 1022.9 hPa | - | - | - | - |
| 1777436362 | 11.11° C | 40% | 1022.8 hPa | - | - | - | - |
| 1777435462 | 11.11° C | 40% | 1022.7 hPa | - | - | - | - |
| 1777434562 | 11.11° C | 40% | 1022.7 hPa | - | - | - | - |
| 1777433662 | 11.11° C | 40% | 1022.4 hPa | - | - | - | - |
* Rain since midnight (hover to see other rain measurements)
** Current wind speed in m/s (hover to see current wind gust speed)